Girona, Spain

5:56 AM CEST on July 28, 2016 (GMT +0200)
Girona

Weather History for LEGE - November, 2013

Change the Weather History Date:

Sunday, November 10, 2013

  Actual Average Record
Temperature  
Mean Temperature 54 °F -  
Max Temperature 66 °F 59 °F 75 °F (2015)
Min Temperature 41 °F 39 °F 35 °F (1999)
Degree Days  
Heating Degree Days 12    
Growing Degree Days 4 (Base 50)    
Moisture  
Dew Point 43 °F    
Average Humidity 71    
Maximum Humidity 93    
Minimum Humidity 31    
Precipitation  
Precipitation 0.00 in 0.09 in - ()
Sea Level Pressure  
Sea Level Pressure 30.04 in    
Wind  
Wind Speed 2 mph ()    
Max Wind Speed 20 mph    
Max Gust Speed -    
Visibility 6.9 miles    
Events      
Averages and records for this station are not official NWS values.
T = Trace of Precipitation, MM = Missing Value Source: Averaged Metar Reports

Daily Weather History Graph

Daily Weather History Graph

Search for Another Location

Airport or City:

Trip Planner

Search our weather history database for the weather conditions in past years. The results will help you decide how hot, cold, wet, or windy it might be!

Date:

Astronomy

Nov. 10, 2013 Rise Set
Actual Time 7:32 AM CET 5:32 PM CET
Civil Twilight 7:02 AM CET 6:02 PM CET
Nautical Twilight 6:29 AM CET 6:35 PM CET
Astronomical Twilight 5:56 AM CET 7:08 PM CET
Moon 1:35 PM CET (11/10) No Moon Set
Length of Visible Light 10h 59m
Length of Day
10h 00m
First Quarter, 52% of the Moon is Illuminated
Nov 10
First Quarter
Nov 17
Full
Nov 25
Last Quarter
Dec 3
New
Dec 9
First Quarter

Hourly Weather History & Observations

Time (CET) Temp. Windchill Dew Point Humidity Pressure Visibility Wind Dir Wind Speed Gust Speed Precip Events Conditions
12:00 AM 46.4 °F 45.2 °F 42.8 °F 87% 30.06 in 6.2 mi NNE 3.5 mph - N/A   Partly Cloudy
12:30 AM 46.4 °F 43.5 °F 41.0 °F 81% 30.06 in 6.2 mi North 5.8 mph - N/A   Partly Cloudy
1:00 AM 48 °F - 40 °F 65% 30.08 in 12 mi NNE 3.5 mph - -   Scattered Clouds
1:00 AM 48.2 °F - 39.2 °F 71% 30.06 in 6.2 mi NNE 3.5 mph - N/A   Partly Cloudy
1:30 AM 44.6 °F - 39.2 °F 81% 30.06 in 6.2 mi Calm Calm - N/A   Partly Cloudy
2:00 AM 44.6 °F - 39.2 °F 81% 30.06 in 6.2 mi Calm Calm - N/A   Partly Cloudy
2:30 AM 44.6 °F - 41.0 °F 87% 30.06 in 6.2 mi Calm Calm - N/A   Partly Cloudy
3:00 AM 44.6 °F - 41.0 °F 87% 30.06 in 6.2 mi Calm Calm - N/A   Partly Cloudy
3:30 AM 42.8 °F 40.1 °F 39.2 °F 87% 30.06 in 6.2 mi West 4.6 mph - N/A   Partly Cloudy
4:00 AM 42.8 °F - 39.2 °F 87% 30.06 in 6.2 mi Calm Calm - N/A   Partly Cloudy
4:30 AM 41.0 °F - 39.2 °F 93% 30.09 in 6.2 mi Variable 1.2 mph - N/A   Partly Cloudy
5:00 AM 41.0 °F - 39.2 °F 93% 30.06 in 6.2 mi Variable 2.3 mph - N/A   Partly Cloudy
5:30 AM 44.6 °F 43.1 °F 39.2 °F 81% 30.06 in 6.2 mi WNW 3.5 mph - N/A   Partly Cloudy
6:00 AM 41.0 °F - 37.4 °F 87% 30.06 in 6.2 mi Variable 1.2 mph - N/A   Partly Cloudy
6:30 AM 42.8 °F - 39.2 °F 87% 30.06 in 6.2 mi Calm Calm - N/A   Partly Cloudy
7:00 AM 42 °F - 39 °F 83% 30.07 in 19 mi West 2.3 mph - -   Scattered Clouds
7:00 AM 42.8 °F 41.1 °F 39.2 °F 87% 30.06 in 6.2 mi West 3.5 mph - N/A   Partly Cloudy
7:30 AM 41.0 °F - 39.2 °F 93% 30.06 in 6.2 mi Variable 2.3 mph - N/A   Scattered Clouds
8:00 AM 41.0 °F - 39.2 °F 93% 30.06 in 6.2 mi Calm Calm - N/A   Scattered Clouds
8:30 AM 44.6 °F - 39.2 °F 81% 30.06 in 6.2 mi WSW 1.2 mph - N/A   Scattered Clouds
9:00 AM 44.6 °F - 41.0 °F 87% 30.06 in 6.2 mi Variable 2.3 mph - N/A   Scattered Clouds
9:30 AM 48.2 °F - 42.8 °F 82% 30.06 in 6.2 mi Calm Calm - N/A   Scattered Clouds
10:00 AM 50.0 °F - 42.8 °F 76% 30.04 in 6.2 mi Calm Calm - N/A   Scattered Clouds
10:30 AM 51.8 °F - 42.8 °F 71% 30.04 in 6.2 mi Variable 1.2 mph - N/A   Scattered Clouds
11:00 AM 55.4 °F - 44.6 °F 67% 30.04 in 6.2 mi Calm Calm - N/A   Scattered Clouds
11:30 AM 59.0 °F - 46.4 °F 63% 30.04 in 6.2 mi Variable 1.2 mph - N/A   Scattered Clouds
12:00 PM 62.6 °F - 44.6 °F 52% 30.04 in 6.2 mi West 1.2 mph - N/A   Partly Cloudy
12:30 PM 64.4 °F - 42.8 °F 45% 30.01 in 6.2 mi NNW 2.3 mph - N/A   Partly Cloudy
1:00 PM 67 °F - 44 °F 31% 29.99 in 19 mi SW 3.5 mph - -   Scattered Clouds
1:00 PM 64.4 °F - 44.6 °F 49% 30.01 in 6.2 mi Variable 2.3 mph - N/A   Partly Cloudy
1:30 PM 64.4 °F - 44.6 °F 49% 30.01 in 6.2 mi SSW 3.5 mph - N/A   Partly Cloudy
2:00 PM 64.4 °F - 42.8 °F 45% 30.01 in 6.2 mi Variable 2.3 mph - N/A   Partly Cloudy
2:30 PM 64.4 °F - 42.8 °F 45% 29.98 in 6.2 mi Variable 1.2 mph - N/A   Scattered Clouds
3:00 PM 64.4 °F - 44.6 °F 49% 29.98 in 6.2 mi Variable 1.2 mph - N/A   Scattered Clouds
3:30 PM 62.6 °F - 44.6 °F 52% 29.98 in 6.2 mi Variable 1.2 mph - N/A   Scattered Clouds
4:00 PM 62.6 °F - 46.4 °F 55% 29.98 in 6.2 mi Calm Calm - N/A   Scattered Clouds
4:30 PM 62.6 °F - 44.6 °F 52% 29.98 in 6.2 mi Calm Calm - N/A   Scattered Clouds
5:00 PM 60.8 °F - 46.4 °F 59% 29.98 in 6.2 mi Calm Calm - N/A   Scattered Clouds
5:30 PM 59.0 °F - 46.4 °F 63% 29.98 in 6.2 mi SW 2.3 mph - N/A   Scattered Clouds
6:00 PM 57.2 °F - 44.6 °F 63% 30.01 in 6.2 mi West 1.2 mph - N/A   Scattered Clouds
6:30 PM 55.4 °F - 44.6 °F 67% 30.01 in 6.2 mi Calm Calm - N/A   Scattered Clouds
7:00 PM 55 °F - 45 °F 59% 30.02 in 12 mi Calm Calm - -   Scattered Clouds
7:00 PM 55.4 °F - 44.6 °F 67% 30.04 in 6.2 mi Calm Calm - N/A   Scattered Clouds
7:30 PM 53.6 °F - 44.6 °F 72% 30.04 in 6.2 mi Calm Calm - N/A   Scattered Clouds
8:00 PM 53.6 °F - 44.6 °F 72% 30.04 in 6.2 mi Calm Calm - N/A   Scattered Clouds
8:30 PM 53.6 °F - 44.6 °F 72% 30.04 in 6.2 mi Calm Calm - N/A   Scattered Clouds
9:00 PM 53.6 °F - 46.4 °F 77% 30.04 in 6.2 mi Calm Calm - N/A   Scattered Clouds
9:30 PM 53.6 °F - 46.4 °F 77% 30.06 in 6.2 mi Variable 2.3 mph - N/A   Scattered Clouds
10:00 PM 55.4 °F - 48.2 °F 77% 30.06 in 6.2 mi NE 9.2 mph - N/A   Partly Cloudy
10:30 PM 57.2 °F - 48.2 °F 72% 30.06 in 6.2 mi NNE 12.7 mph - N/A   Partly Cloudy
11:00 PM 57.2 °F - 46.4 °F 67% 30.06 in 6.2 mi NNE 16.1 mph - N/A   Scattered Clouds
11:30 PM 55.4 °F - 46.4 °F 72% 30.06 in 6.2 mi NNE 19.6 mph - N/A   Partly Cloudy